Wetterdaten: Sonntag, 13.09.2015
Datum Zeit Temp. A. Feuchte A. Luftdruck Regen Wind Richtung Richtung Sonnenschein ET UV Solar Taupunkt Windchill Windben Empfang
13.09.2015 00:03 14,1 C 85 % 1016,1 hPa 0,0 l/m 0,0 km/h (0 Bft) O-NO 75 0 min 0,000 mm 0,0 UV-I 0 W/m 11,6 C 14,1 C 0,0 km/h (0 Bft) 0,00 %
13.09.2015 00:08 14,1 C 85 % 1016,2 hPa 0,0 l/m 0,0 km/h (0 Bft) O 87 0 min 0,000 mm 0,0 UV-I 0 W/m 11,6 C 14,1 C 0,0 km/h (0 Bft) 0,00 %
13.09.2015 00:13 14,1 C 85 % 1016,1 hPa 0,0 l/m 0,0 km/h (0 Bft) NO 49 0 min 0,000 mm 0,0 UV-I 0 W/m 11,6 C 14,1 C 0,0 km/h (0 Bft) 0,00 %
13.09.2015 00:18 14,0 C 85 % 1016,1 hPa 0,0 l/m 0,0 km/h (0 Bft) O 101 0 min 0,000 mm 0,0 UV-I 0 W/m 11,5 C 14,0 C 0,0 km/h (0 Bft) 0,00 %
13.09.2015 00:23 13,8 C 86 % 1016,1 hPa 0,0 l/m 0,0 km/h (0 Bft) O 100 0 min 0,000 mm 0,0 UV-I 0 W/m 11,5 C 13,8 C 0,0 km/h (0 Bft) 0,00 %
13.09.2015 00:28 13,5 C 87 % 1016,0 hPa 0,0 l/m 0,0 km/h (0 Bft) O 99 0 min 0,000 mm 0,0 UV-I 0 W/m 11,4 C 13,5 C 0,0 km/h (0 Bft) 0,00 %
13.09.2015 00:33 13,4 C 88 % 1016,1 hPa 0,0 l/m 0,0 km/h (0 Bft) O-NO 57 0 min 0,000 mm 0,0 UV-I 0 W/m 11,5 C 13,4 C 0,0 km/h (0 Bft) 0,00 %
13.09.2015 00:38 13,3 C 88 % 1016,1 hPa 0,0 l/m 0,0 km/h (0 Bft) O-NO 65 0 min 0,000 mm 0,0 UV-I 0 W/m 11,4 C 13,3 C 0,0 km/h (0 Bft) 0,00 %
13.09.2015 00:43 13,2 C 88 % 1016,1 hPa 0,0 l/m 0,0 km/h (0 Bft) O-NO 76 0 min 0,000 mm 0,0 UV-I 0 W/m 11,3 C 13,2 C 0,0 km/h (0 Bft) 0,00 %
13.09.2015 00:48 13,1 C 89 % 1016,0 hPa 0,0 l/m 0,0 km/h (0 Bft) O-NO 66 0 min 0,000 mm 0,0 UV-I 0 W/m 11,3 C 13,1 C 0,0 km/h (0 Bft) 0,00 %
13.09.2015 00:53 13,0 C 89 % 1016,0 hPa 0,0 l/m 0,0 km/h (0 Bft) O 89 0 min 0,000 mm 0,0 UV-I 0 W/m 11,2 C 13,0 C 0,0 km/h (0 Bft) 0,00 %
13.09.2015 00:58 12,9 C 91 % 1016,0 hPa 0,0 l/m 0,0 km/h (0 Bft) O-SO 102 0 min 0,000 mm 0,0 UV-I 0 W/m 11,5 C 12,9 C 0,0 km/h (0 Bft) 0,00 %
13.09.2015 01:03 12,9 C 91 % 1015,8 hPa 0,0 l/m 0,0 km/h (0 Bft) O 93 0 min 0,000 mm 0,0 UV-I 0 W/m 11,5 C 12,9 C 0,0 km/h (0 Bft) 0,00 %
13.09.2015 01:08 12,9 C 91 % 1015,9 hPa 0,0 l/m 0,0 km/h (0 Bft) O-NO 73 0 min 0,000 mm 0,0 UV-I 0 W/m 11,5 C 12,9 C 0,0 km/h (0 Bft) 0,00 %
13.09.2015 01:13 12,9 C 91 % 1015,8 hPa 0,0 l/m 0,0 km/h (0 Bft) NO 52 0 min 0,000 mm 0,0 UV-I 0 W/m 11,5 C 12,9 C 0,0 km/h (0 Bft) 0,00 %
13.09.2015 01:18 12,8 C 91 % 1015,9 hPa 0,0 l/m 0,0 km/h (0 Bft) O-NO 64 0 min 0,000 mm 0,0 UV-I 0 W/m 11,4 C 12,8 C 0,0 km/h (0 Bft) 0,00 %
13.09.2015 01:23 12,7 C 91 % 1016,1 hPa 0,0 l/m 0,0 km/h (0 Bft) NO 50 0 min 0,000 mm 0,0 UV-I 0 W/m 11,3 C 12,7 C 0,0 km/h (0 Bft) 0,00 %
13.09.2015 01:28 12,6 C 91 % 1016,0 hPa 0,0 l/m 0,0 km/h (0 Bft) NO 45 0 min 0,000 mm 0,0 UV-I 0 W/m 11,2 C 12,6 C 0,0 km/h (0 Bft) 0,00 %
13.09.2015 01:33 12,5 C 91 % 1015,8 hPa 0,0 l/m 0,0 km/h (0 Bft) NO 50 0 min 0,000 mm 0,0 UV-I 0 W/m 11,1 C 12,5 C 0,0 km/h (0 Bft) 0,00 %
13.09.2015 01:38 12,3 C 91 % 1015,9 hPa 0,0 l/m 0,0 km/h (0 Bft) NO 55 0 min 0,000 mm 0,0 UV-I 0 W/m 10,9 C 12,3 C 0,0 km/h (0 Bft) 0,00 %
13.09.2015 01:43 12,0 C 91 % 1016,1 hPa 0,0 l/m 0,0 km/h (0 Bft) NO 49 0 min 0,000 mm 0,0 UV-I 0 W/m 10,6 C 12,0 C 0,0 km/h (0 Bft) 0,00 %
13.09.2015 01:48 11,8 C 91 % 1015,8 hPa 0,0 l/m 0,0 km/h (0 Bft) O-NO 70 0 min 0,000 mm 0,0 UV-I 0 W/m 10,4 C 11,8 C 0,0 km/h (0 Bft) 0,00 %
13.09.2015 01:53 11,5 C 91 % 1016,0 hPa 0,0 l/m 0,0 km/h (0 Bft) O-NO 77 0 min 0,000 mm 0,0 UV-I 0 W/m 10,1 C 11,5 C 0,0 km/h (0 Bft) 0,00 %
13.09.2015 01:58 11,4 C 92 % 1015,9 hPa 0,0 l/m 0,0 km/h (0 Bft) NO 54 0 min 0,000 mm 0,0 UV-I 0 W/m 10,1 C 11,4 C 0,0 km/h (0 Bft) 0,00 %
13.09.2015 02:03 11,4 C 93 % 1015,9 hPa 0,0 l/m 0,0 km/h (0 Bft) O-NO 61 0 min 0,000 mm 0,0 UV-I 0 W/m 10,3 C 11,4 C 0,0 km/h (0 Bft) 0,00 %
13.09.2015 02:08 11,4 C 93 % 1015,8 hPa 0,0 l/m 0,0 km/h (0 Bft) NO 48 0 min 0,000 mm 0,0 UV-I 0 W/m 10,3 C 11,4 C 0,0 km/h (0 Bft) 0,00 %
13.09.2015 02:13 11,4 C 94 % 1015,9 hPa 0,0 l/m 0,0 km/h (0 Bft) NO 42 0 min 0,000 mm 0,0 UV-I 0 W/m 10,5 C 11,4 C 0,0 km/h (0 Bft) 0,00 %
13.09.2015 02:18 11,3 C 94 % 1015,9 hPa 0,0 l/m 0,0 km/h (0 Bft) NO 45 0 min 0,000 mm 0,0 UV-I 0 W/m 10,4 C 11,3 C 0,0 km/h (0 Bft) 0,00 %
13.09.2015 02:23 11,1 C 94 % 1015,9 hPa 0,0 l/m 0,0 km/h (0 Bft) N-NO 33 0 min 0,000 mm 0,0 UV-I 0 W/m 10,2 C 11,1 C 0,0 km/h (0 Bft) 0,00 %
13.09.2015 02:28 11,0 C 95 % 1015,9 hPa 0,0 l/m 0,0 km/h (0 Bft) NO 47 0 min 0,000 mm 0,0 UV-I 0 W/m 10,2 C 11,0 C 0,0 km/h (0 Bft) 0,00 %
13.09.2015 02:33 10,8 C 95 % 1016,1 hPa 0,0 l/m 0,0 km/h (0 Bft) NO 51 0 min 0,000 mm 0,0 UV-I 0 W/m 10,0 C 10,8 C 0,0 km/h (0 Bft) 0,00 %
13.09.2015 02:38 10,6 C 95 % 1016,1 hPa 0,0 l/m 0,0 km/h (0 Bft) NO 44 0 min 0,000 mm 0,0 UV-I 0 W/m 9,8 C 10,6 C 0,0 km/h (0 Bft) 0,00 %
13.09.2015 02:43 10,5 C 95 % 1016,0 hPa 0,0 l/m 0,0 km/h (0 Bft) N 359 0 min 0,000 mm 0,0 UV-I 0 W/m 9,7 C 10,5 C 0,0 km/h (0 Bft) 0,00 %
13.09.2015 02:48 10,5 C 95 % 1015,8 hPa 0,0 l/m 0,0 km/h (0 Bft) NO 46 0 min 0,000 mm 0,0 UV-I 0 W/m 9,7 C 10,5 C 0,0 km/h (0 Bft) 0,00 %
13.09.2015 02:53 10,4 C 95 % 1015,9 hPa 0,0 l/m 0,0 km/h (0 Bft) NO 56 0 min 0,000 mm 0,0 UV-I 0 W/m 9,6 C 10,4 C 0,0 km/h (0 Bft) 0,00 %
13.09.2015 02:58 10,3 C 96 % 1016,0 hPa 0,0 l/m 0,0 km/h (0 Bft) NO 47 0 min 0,000 mm 0,0 UV-I 0 W/m 9,7 C 10,3 C 0,0 km/h (0 Bft) 0,00 %
13.09.2015 03:03 10,2 C 96 % 1015,9 hPa 0,0 l/m 0,0 km/h (0 Bft) N 356 0 min 0,000 mm 0,0 UV-I 0 W/m 9,6 C 10,2 C 0,0 km/h (0 Bft) 0,00 %
13.09.2015 03:08 10,1 C 96 % 1016,0 hPa 0,0 l/m 0,0 km/h (0 Bft) NO 42 0 min 0,000 mm 0,0 UV-I 0 W/m 9,5 C 10,1 C 0,0 km/h (0 Bft) 0,00 %
13.09.2015 03:13 10,1 C 96 % 1016,0 hPa 0,0 l/m 0,0 km/h (0 Bft) O-NO 59 0 min 0,000 mm 0,0 UV-I 0 W/m 9,5 C 10,1 C 0,0 km/h (0 Bft) 0,00 %
13.09.2015 03:18 10,2 C 97 % 1015,9 hPa 0,0 l/m 0,0 km/h (0 Bft) NO 39 0 min 0,000 mm 0,0 UV-I 0 W/m 9,7 C 10,2 C 0,0 km/h (0 Bft) 0,00 %
13.09.2015 03:23 10,3 C 97 % 1015,8 hPa 0,0 l/m 0,0 km/h (0 Bft) N-NO 33 0 min 0,000 mm 0,0 UV-I 0 W/m 9,8 C 10,3 C 0,0 km/h (0 Bft) 0,00 %
13.09.2015 03:28 10,3 C 97 % 1015,9 hPa 0,0 l/m 0,0 km/h (0 Bft) NO 35 0 min 0,000 mm 0,0 UV-I 0 W/m 9,8 C 10,3 C 0,0 km/h (0 Bft) 0,00 %
13.09.2015 03:33 10,1 C 98 % 1015,7 hPa 0,0 l/m 0,0 km/h (0 Bft) NO 46 0 min 0,000 mm 0,0 UV-I 0 W/m 9,8 C 10,1 C 0,0 km/h (0 Bft) 0,00 %
13.09.2015 03:38 9,9 C 98 % 1016,0 hPa 0,0 l/m 0,0 km/h (0 Bft) N 4 0 min 0,000 mm 0,0 UV-I 0 W/m 9,6 C 9,9 C 0,0 km/h (0 Bft) 0,00 %
13.09.2015 03:43 9,6 C 98 % 1016,0 hPa 0,0 l/m 0,0 km/h (0 Bft) NO 46 0 min 0,000 mm 0,0 UV-I 0 W/m 9,3 C 9,6 C 0,0 km/h (0 Bft) 0,00 %
13.09.2015 03:48 9,5 C 98 % 1015,9 hPa 0,0 l/m 0,0 km/h (0 Bft) NO 36 0 min 0,000 mm 0,0 UV-I 0 W/m 9,2 C 9,5 C 0,0 km/h (0 Bft) 0,00 %
13.09.2015 03:53 9,4 C 98 % 1015,9 hPa 0,0 l/m 0,0 km/h (0 Bft) NO 48 0 min 0,000 mm 0,0 UV-I 0 W/m 9,1 C 9,4 C 0,0 km/h (0 Bft) 0,00 %
13.09.2015 03:58 9,2 C 99 % 1015,8 hPa 0,0 l/m 0,0 km/h (0 Bft) NO 50 0 min 0,000 mm 0,0 UV-I 0 W/m 9,1 C 9,2 C 0,0 km/h (0 Bft) 0,00 %
13.09.2015 04:03 9,2 C 99 % 1015,9 hPa 0,0 l/m 0,0 km/h (0 Bft) NO 46 0 min 0,000 mm 0,0 UV-I 0 W/m 9,1 C 9,2 C 0,0 km/h (0 Bft) 0,00 %
13.09.2015 04:08 9,2 C 99 % 1015,9 hPa 0,0 l/m 0,0 km/h (0 Bft) NO 54 0 min 0,000 mm 0,0 UV-I 0 W/m 9,1 C 9,2 C 0,0 km/h (0 Bft) 0,00 %
13.09.2015 04:13 9,2 C 99 % 1015,8 hPa 0,0 l/m 0,0 km/h (0 Bft) NO 45 0 min 0,000 mm 0,0 UV-I 0 W/m 9,1 C 9,2 C 0,0 km/h (0 Bft) 0,00 %
13.09.2015 04:18 9,2 C 99 % 1015,8 hPa 0,0 l/m 0,0 km/h (0 Bft) NO 46 0 min 0,000 mm 0,0 UV-I 0 W/m 9,1 C 9,2 C 0,0 km/h (0 Bft) 0,00 %
13.09.2015 04:23 9,2 C 99 % 1015,8 hPa 0,0 l/m 0,0 km/h (0 Bft) NO 48 0 min 0,000 mm 0,0 UV-I 0 W/m 9,1 C 9,2 C 0,0 km/h (0 Bft) 0,00 %
13.09.2015 04:28 9,0 C 99 % 1015,9 hPa 0,0 l/m 0,0 km/h (0 Bft) NO 42 0 min 0,000 mm 0,0 UV-I 0 W/m 8,9 C 9,0 C 0,0 km/h (0 Bft) 0,00 %
13.09.2015 04:33 8,9 C 99 % 1015,8 hPa 0,0 l/m 0,0 km/h (0 Bft) NO 56 0 min 0,000 mm 0,0 UV-I 0 W/m 8,8 C 8,9 C 0,0 km/h (0 Bft) 0,00 %
13.09.2015 04:38 8,9 C 99 % 1015,8 hPa 0,0 l/m 0,0 km/h (0 Bft) NO 36 0 min 0,000 mm 0,0 UV-I 0 W/m 8,8 C 8,9 C 0,0 km/h (0 Bft) 0,00 %
13.09.2015 04:43 9,0 C 99 % 1015,9 hPa 0,0 l/m 0,0 km/h (0 Bft) NO 44 0 min 0,000 mm 0,0 UV-I 0 W/m 8,9 C 9,0 C 0,0 km/h (0 Bft) 0,00 %
13.09.2015 04:48 9,2 C 99 % 1015,9 hPa 0,0 l/m 0,0 km/h (0 Bft) NO 51 0 min 0,000 mm 0,0 UV-I 0 W/m 9,1 C 9,2 C 0,0 km/h (0 Bft) 0,00 %
13.09.2015 04:53 9,3 C 99 % 1015,8 hPa 0,0 l/m 0,0 km/h (0 Bft) NO 42 0 min 0,000 mm 0,0 UV-I 0 W/m 9,2 C 9,3 C 0,0 km/h (0 Bft) 0,00 %
13.09.2015 04:58 9,3 C 99 % 1015,9 hPa 0,0 l/m 0,0 km/h (0 Bft) NO 48 0 min 0,000 mm 0,0 UV-I 0 W/m 9,2 C 9,3 C 0,0 km/h (0 Bft) 0,00 %
13.09.2015 05:03 9,4 C 99 % 1015,9 hPa 0,0 l/m 0,0 km/h (0 Bft) NO 44 0 min 0,000 mm 0,0 UV-I 0 W/m 9,3 C 9,4 C 0,0 km/h (0 Bft) 0,00 %
13.09.2015 05:08 9,3 C 99 % 1015,8 hPa 0,0 l/m 0,0 km/h (0 Bft) NO 45 0 min 0,000 mm 0,0 UV-I 0 W/m 9,2 C 9,3 C 0,0 km/h (0 Bft) 0,00 %
13.09.2015 05:13 9,3 C 99 % 1015,7 hPa 0,0 l/m 0,0 km/h (0 Bft) NO 50 0 min 0,000 mm 0,0 UV-I 0 W/m 9,2 C 9,3 C 0,0 km/h (0 Bft) 0,00 %
13.09.2015 05:18 9,2 C 99 % 1015,7 hPa 0,0 l/m 0,0 km/h (0 Bft) NO 44 0 min 0,000 mm 0,0 UV-I 0 W/m 9,1 C 9,2 C 0,0 km/h (0 Bft) 0,00 %
13.09.2015 05:23 9,1 C 99 % 1015,7 hPa 0,0 l/m 0,0 km/h (0 Bft) NO 43 0 min 0,000 mm 0,0 UV-I 0 W/m 9,0 C 9,1 C 0,0 km/h (0 Bft) 0,00 %
13.09.2015 05:28 8,8 C 99 % 1016,0 hPa 0,0 l/m 0,0 km/h (0 Bft) N 352 0 min 0,000 mm 0,0 UV-I 0 W/m 8,7 C 8,8 C 0,0 km/h (0 Bft) 0,00 %
13.09.2015 05:33 8,5 C 99 % 1015,7 hPa 0,0 l/m 0,0 km/h (0 Bft) NO 40 0 min 0,000 mm 0,0 UV-I 0 W/m 8,4 C 8,5 C 0,0 km/h (0 Bft) 0,00 %
13.09.2015 05:38 8,4 C 99 % 1015,9 hPa 0,0 l/m 0,0 km/h (0 Bft) NO 42 0 min 0,000 mm 0,0 UV-I 0 W/m 8,3 C 8,4 C 0,0 km/h (0 Bft) 0,00 %
13.09.2015 05:43 8,4 C 99 % 1015,8 hPa 0,0 l/m 0,0 km/h (0 Bft) NO 55 0 min 0,000 mm 0,0 UV-I 0 W/m 8,3 C 8,4 C 0,0 km/h (0 Bft) 0,00 %
13.09.2015 05:49 8,6 C 99 % 1015,8 hPa 0,0 l/m 0,0 km/h (0 Bft) NO 46 0 min 0,000 mm 0,0 UV-I 0 W/m 8,5 C 8,6 C 0,0 km/h (0 Bft) 0,00 %
13.09.2015 05:54 8,8 C 99 % 1016,0 hPa 0,0 l/m 0,0 km/h (0 Bft) NO 38 0 min 0,000 mm 0,0 UV-I 0 W/m 8,7 C 8,8 C 0,0 km/h (0 Bft) 0,00 %
13.09.2015 05:59 8,7 C 99 % 1015,7 hPa 0,0 l/m 0,0 km/h (0 Bft) NO 56 0 min 0,000 mm 0,0 UV-I 0 W/m 8,6 C 8,7 C 0,0 km/h (0 Bft) 0,00 %
13.09.2015 06:04 8,6 C 99 % 1015,9 hPa 0,0 l/m 0,0 km/h (0 Bft) NO 50 0 min 0,000 mm 0,0 UV-I 0 W/m 8,5 C 8,6 C 0,0 km/h (0 Bft) 0,00 %
13.09.2015 06:09 8,4 C 99 % 1015,8 hPa 0,0 l/m 0,0 km/h (0 Bft) NO 44 0 min 0,000 mm 0,0 UV-I 0 W/m 8,3 C 8,4 C 0,0 km/h (0 Bft) 0,00 %
13.09.2015 06:14 8,3 C 99 % 1015,8 hPa 0,0 l/m 0,0 km/h (0 Bft) NO 53 0 min 0,000 mm 0,0 UV-I 0 W/m 8,2 C 8,3 C 0,0 km/h (0 Bft) 0,00 %
13.09.2015 06:19 8,1 C 99 % 1015,8 hPa 0,0 l/m 0,0 km/h (0 Bft) NO 41 0 min 0,000 mm 0,0 UV-I 0 W/m 8,0 C 8,1 C 0,0 km/h (0 Bft) 0,00 %
13.09.2015 06:24 8,1 C 99 % 1015,9 hPa 0,0 l/m 0,0 km/h (0 Bft) NO 46 0 min 0,000 mm 0,0 UV-I 0 W/m 8,0 C 8,1 C 0,0 km/h (0 Bft) 0,00 %
13.09.2015 06:29 8,0 C 99 % 1015,9 hPa 0,0 l/m 0,0 km/h (0 Bft) NO 46 0 min 0,000 mm 0,0 UV-I 0 W/m 7,9 C 8,0 C 0,0 km/h (0 Bft) 0,00 %
13.09.2015 06:34 8,0 C 99 % 1015,6 hPa 0,0 l/m 0,0 km/h (0 Bft) NO 49 0 min 0,000 mm 0,0 UV-I 0 W/m 7,9 C 8,0 C 0,0 km/h (0 Bft) 0,00 %
13.09.2015 06:39 8,0 C 99 % 1015,7 hPa 0,0 l/m 0,0 km/h (0 Bft) NO 45 0 min 0,000 mm 0,0 UV-I 0 W/m 7,9 C 8,0 C 0,0 km/h (0 Bft) 0,00 %
13.09.2015 06:44 8,0 C 99 % 1015,8 hPa 0,0 l/m 0,0 km/h (0 Bft) NO 45 0 min 0,000 mm 0,0 UV-I 6 W/m 7,9 C 8,0 C 0,0 km/h (0 Bft) 0,00 %
13.09.2015 06:49 8,0 C 99 % 1015,9 hPa 0,0 l/m 0,0 km/h (0 Bft) NO 45 5 min 0,000 mm 0,0 UV-I 12 W/m 7,9 C 8,0 C 0,0 km/h (0 Bft) 0,00 %
13.09.2015 06:54 7,9 C 99 % 1015,9 hPa 0,0 l/m 0,0 km/h (0 Bft) NO 44 5 min 0,000 mm 0,0 UV-I 23 W/m 7,8 C 7,9 C 0,0 km/h (0 Bft) 0,00 %
13.09.2015 06:59 7,9 C 99 % 1016,0 hPa 0,0 l/m 0,0 km/h (0 Bft) NO 45 5 min 0,000 mm 0,0 UV-I 32 W/m 7,8 C 7,9 C 0,0 km/h (0 Bft) 0,00 %
13.09.2015 07:04 8,0 C 99 % 1015,9 hPa 0,0 l/m 0,0 km/h (0 Bft) NO 45 5 min 0,000 mm 0,0 UV-I 40 W/m 7,9 C 8,0 C 0,0 km/h (0 Bft) 0,00 %
13.09.2015 07:09 8,2 C 99 % 1016,0 hPa 0,0 l/m 0,0 km/h (0 Bft) NO 41 0 min 0,000 mm 0,0 UV-I 41 W/m 8,1 C 8,2 C 0,0 km/h (0 Bft) 0,00 %
13.09.2015 07:14 8,6 C 99 % 1016,0 hPa 0,0 l/m 0,0 km/h (0 Bft) NO 45 0 min 0,000 mm 0,0 UV-I 49 W/m 8,5 C 8,6 C 0,0 km/h (0 Bft) 0,00 %
13.09.2015 07:19 8,9 C 99 % 1016,1 hPa 0,0 l/m 0,0 km/h (0 Bft) NO 36 0 min 0,000 mm 0,0 UV-I 57 W/m 8,8 C 8,9 C 0,0 km/h (0 Bft) 0,00 %
13.09.2015 07:24 9,1 C 99 % 1016,2 hPa 0,0 l/m 0,0 km/h (0 Bft) NO 43 0 min 0,000 mm 0,0 UV-I 63 W/m 9,0 C 9,1 C 0,0 km/h (0 Bft) 0,00 %
13.09.2015 07:29 9,4 C 99 % 1016,0 hPa 0,0 l/m 0,0 km/h (0 Bft) NO 36 5 min 0,000 mm 0,0 UV-I 79 W/m 9,3 C 9,4 C 0,0 km/h (0 Bft) 0,00 %
13.09.2015 07:34 9,7 C 98 % 1016,2 hPa 0,0 l/m 0,0 km/h (0 Bft) NO 39 0 min 0,000 mm 0,0 UV-I 74 W/m 9,4 C 9,7 C 0,0 km/h (0 Bft) 0,00 %
13.09.2015 07:39 10,0 C 98 % 1016,1 hPa 0,0 l/m 0,0 km/h (0 Bft) NO 52 0 min 0,000 mm 0,0 UV-I 69 W/m 9,7 C 10,0 C 0,0 km/h (0 Bft) 0,00 %
13.09.2015 07:44 10,3 C 98 % 1016,1 hPa 0,0 l/m 0,0 km/h (0 Bft) O-NO 72 0 min 0,000 mm 0,0 UV-I 91 W/m 10,0 C 10,3 C 0,0 km/h (0 Bft) 0,00 %
13.09.2015 07:49 10,7 C 97 % 1016,0 hPa 0,0 l/m 0,0 km/h (0 Bft) NO 52 0 min 0,000 mm 0,0 UV-I 90 W/m 10,2 C 10,7 C 0,0 km/h (0 Bft) 0,00 %
13.09.2015 07:54 11,2 C 97 % 1016,0 hPa 0,0 l/m 0,0 km/h (0 Bft) NO 48 0 min 0,000 mm 0,0 UV-I 96 W/m 10,7 C 11,2 C 0,0 km/h (0 Bft) 0,00 %
13.09.2015 07:59 11,8 C 98 % 1016,0 hPa 0,0 l/m 0,0 km/h (0 Bft) NO 49 0 min 0,000 mm 0,0 UV-I 97 W/m 11,5 C 11,8 C 0,0 km/h (0 Bft) 0,00 %
13.09.2015 08:04 12,3 C 98 % 1015,8 hPa 0,0 l/m 0,0 km/h (0 Bft) O-NO 60 0 min 0,000 mm 0,0 UV-I 96 W/m 12,0 C 12,3 C 0,0 km/h (0 Bft) 0,00 %
13.09.2015 08:09 12,6 C 97 % 1015,9 hPa 0,0 l/m 0,0 km/h (0 Bft) NO 55 0 min 0,000 mm 1,0 UV-I 101 W/m 12,1 C 12,6 C 0,0 km/h (0 Bft) 0,00 %
13.09.2015 08:14 12,7 C 97 % 1015,9 hPa 0,0 l/m 0,0 km/h (0 Bft) NO 45 0 min 0,000 mm 1,0 UV-I 107 W/m 12,2 C 12,7 C 0,0 km/h (0 Bft) 0,00 %
13.09.2015 08:19 12,9 C 95 % 1016,1 hPa 0,0 l/m 0,0 km/h (0 Bft) NO 46 0 min 0,000 mm 1,0 UV-I 113 W/m 12,1 C 12,9 C 0,0 km/h (0 Bft) 0,00 %
13.09.2015 08:24 13,3 C 93 % 1015,9 hPa 0,0 l/m 1,4 km/h (1 Bft) O-NO 66 0 min 0,000 mm 1,0 UV-I 116 W/m 12,2 C 13,3 C 4,0 km/h (1 Bft) 0,00 %
13.09.2015 08:29 13,6 C 89 % 1015,8 hPa 0,0 l/m 0,0 km/h (0 Bft) NO 50 0 min 0,000 mm 1,0 UV-I 121 W/m 11,8 C 13,6 C 0,0 km/h (0 Bft) 0,00 %
13.09.2015 08:34 13,9 C 84 % 1015,9 hPa 0,0 l/m 0,4 km/h (0 Bft) N-NO 28 0 min 0,000 mm 1,0 UV-I 124 W/m 11,2 C 13,9 C 4,0 km/h (1 Bft) 0,00 %
13.09.2015 08:39 14,2 C 82 % 1015,6 hPa 0,0 l/m 0,4 km/h (0 Bft) O-NO 61 0 min 0,000 mm 1,0 UV-I 126 W/m 11,2 C 14,2 C 4,0 km/h (1 Bft) 0,00 %
13.09.2015 08:44 14,4 C 81 % 1015,7 hPa 0,0 l/m 0,7 km/h (0 Bft) SO 125 0 min 0,000 mm 1,0 UV-I 122 W/m 11,2 C 14,4 C 4,0 km/h (1 Bft) 0,00 %
13.09.2015 08:49 14,6 C 80 % 1015,7 hPa 0,0 l/m 1,8 km/h (1 Bft) O-SO 103 0 min 0,000 mm 1,0 UV-I 129 W/m 11,2 C 14,6 C 4,0 km/h (1 Bft) 0,00 %
13.09.2015 08:54 14,7 C 78 % 1015,6 hPa 0,0 l/m 7,9 km/h (2 Bft) O 94 0 min 0,000 mm 1,0 UV-I 132 W/m 10,9 C 13,8 C 11,9 km/h (2 Bft) 0,00 %
13.09.2015 08:59 14,7 C 80 % 1015,7 hPa 0,0 l/m 4,7 km/h (1 Bft) SO 124 0 min 0,000 mm 1,0 UV-I 136 W/m 11,3 C 14,7 C 7,9 km/h (2 Bft) 0,00 %
13.09.2015 09:04 14,7 C 78 % 1015,6 hPa 0,0 l/m 0,0 km/h (0 Bft) O-SO 104 0 min 0,000 mm 1,0 UV-I 138 W/m 10,9 C 14,7 C 0,0 km/h (0 Bft) 0,00 %
13.09.2015 09:09 15,0 C 78 % 1015,9 hPa 0,0 l/m 0,4 km/h (0 Bft) SO 137 0 min 0,000 mm 1,0 UV-I 148 W/m 11,2 C 15,0 C 4,0 km/h (1 Bft) 0,00 %
13.09.2015 09:14 15,2 C 77 % 1015,8 hPa 0,0 l/m 2,2 km/h (1 Bft) SO 127 0 min 0,000 mm 1,0 UV-I 156 W/m 11,2 C 15,2 C 4,0 km/h (1 Bft) 0,00 %
13.09.2015 09:19 15,4 C 75 % 1015,7 hPa 0,0 l/m 2,9 km/h (1 Bft) O-SO 108 0 min 0,000 mm 1,0 UV-I 164 W/m 11,0 C 15,4 C 4,0 km/h (1 Bft) 0,00 %
13.09.2015 09:24 15,7 C 74 % 1015,8 hPa 0,0 l/m 2,2 km/h (1 Bft) O-NO 73 0 min 0,000 mm 1,0 UV-I 155 W/m 11,1 C 15,7 C 7,9 km/h (2 Bft) 0,00 %
13.09.2015 09:29 15,8 C 76 % 1015,6 hPa 0,0 l/m 7,9 km/h (2 Bft) O-SO 112 0 min 0,000 mm 1,0 UV-I 118 W/m 11,6 C 15,0 C 11,9 km/h (2 Bft) 0,00 %
13.09.2015 09:34 15,6 C 78 % 1015,8 hPa 0,0 l/m 0,0 km/h (0 Bft) O-SO 110 0 min 0,000 mm 1,0 UV-I 164 W/m 11,8 C 15,6 C 0,0 km/h (0 Bft) 0,00 %
13.09.2015 09:39 15,5 C 78 % 1015,7 hPa 0,0 l/m 0,0 km/h (0 Bft) SO 125 0 min 0,000 mm 1,0 UV-I 198 W/m 11,7 C 15,5 C 0,0 km/h (0 Bft) 0,00 %
13.09.2015 09:44 15,6 C 75 % 1015,8 hPa 0,0 l/m 0,0 km/h (0 Bft) O-SO 113 0 min 0,000 mm 1,0 UV-I 198 W/m 11,2 C 15,6 C 0,0 km/h (0 Bft) 0,00 %
13.09.2015 09:49 16,1 C 73 % 1015,6 hPa 0,0 l/m 0,0 km/h (0 Bft) O-SO 103 0 min 0,000 mm 1,0 UV-I 220 W/m 11,3 C 16,1 C 0,0 km/h (0 Bft) 0,00 %
13.09.2015 09:54 16,8 C 69 % 1015,5 hPa 0,0 l/m 1,8 km/h (1 Bft) O-NO 60 0 min 0,000 mm 1,0 UV-I 229 W/m 11,1 C 16,8 C 4,0 km/h (1 Bft) 0,00 %
13.09.2015 09:59 17,3 C 67 % 1015,4 hPa 0,0 l/m 2,2 km/h (1 Bft) O-NO 64 0 min 0,000 mm 1,0 UV-I 242 W/m 11,1 C 17,3 C 4,0 km/h (1 Bft) 0,00 %
13.09.2015 10:04 17,6 C 67 % 1015,3 hPa 0,0 l/m 4,0 km/h (1 Bft) O-SO 106 0 min 0,000 mm 1,0 UV-I 253 W/m 11,4 C 17,6 C 7,9 km/h (2 Bft) 0,00 %
13.09.2015 10:09 17,8 C 66 % 1015,3 hPa 0,0 l/m 1,8 km/h (1 Bft) O 98 0 min 0,000 mm 1,0 UV-I 266 W/m 11,4 C 17,8 C 4,0 km/h (1 Bft) 0,00 %
13.09.2015 10:14 18,0 C 66 % 1015,2 hPa 0,0 l/m 0,4 km/h (0 Bft) SO 134 0 min 0,000 mm 2,0 UV-I 276 W/m 11,6 C 18,0 C 4,0 km/h (1 Bft) 0,00 %
13.09.2015 10:19 18,2 C 63 % 1015,4 hPa 0,0 l/m 4,0 km/h (1 Bft) O-SO 116 0 min 0,000 mm 2,0 UV-I 289 W/m 11,0 C 18,2 C 7,9 km/h (2 Bft) 0,00 %
13.09.2015 10:24 18,5 C 63 % 1015,1 hPa 0,0 l/m 3,2 km/h (1 Bft) NO 54 0 min 0,000 mm 2,0 UV-I 302 W/m 11,3 C 18,5 C 4,0 km/h (1 Bft) 0,00 %
13.09.2015 10:29 18,7 C 62 % 1015,2 hPa 0,0 l/m 2,9 km/h (1 Bft) O-SO 104 0 min 0,000 mm 2,0 UV-I 315 W/m 11,3 C 18,7 C 4,0 km/h (1 Bft) 0,00 %
13.09.2015 10:34 18,9 C 61 % 1015,0 hPa 0,0 l/m 0,0 km/h (0 Bft) NO 48 5 min 0,000 mm 2,0 UV-I 328 W/m 11,2 C 18,9 C 0,0 km/h (0 Bft) 0,00 %
13.09.2015 10:39 19,1 C 61 % 1014,9 hPa 0,0 l/m 0,4 km/h (0 Bft) SO 131 5 min 0,000 mm 2,0 UV-I 342 W/m 11,4 C 19,1 C 4,0 km/h (1 Bft) 0,00 %
13.09.2015 10:44 19,3 C 61 % 1014,7 hPa 0,0 l/m 4,7 km/h (1 Bft) O-NO 74 5 min 0,000 mm 2,0 UV-I 357 W/m 11,6 C 19,3 C 7,9 km/h (2 Bft) 0,00 %
13.09.2015 10:49 19,4 C 60 % 1014,6 hPa 0,0 l/m 0,0 km/h (0 Bft) N 3 5 min 0,000 mm 2,0 UV-I 376 W/m 11,4 C 19,4 C 0,0 km/h (0 Bft) 0,00 %
13.09.2015 10:54 19,5 C 61 % 1014,3 hPa 0,0 l/m 1,8 km/h (1 Bft) N-NW 347 5 min 0,000 mm 2,0 UV-I 385 W/m 11,8 C 19,5 C 4,0 km/h (1 Bft) 0,00 %
13.09.2015 10:59 19,5 C 61 % 1014,4 hPa 0,0 l/m 7,2 km/h (2 Bft) O 84 5 min 0,000 mm 2,0 UV-I 400 W/m 11,8 C 19,2 C 11,9 km/h (2 Bft) 0,00 %
13.09.2015 11:04 19,5 C 60 % 1014,2 hPa 0,0 l/m 0,0 km/h (0 Bft) N-NW 332 5 min 0,000 mm 2,0 UV-I 402 W/m 11,5 C 19,5 C 0,0 km/h (0 Bft) 0,00 %
13.09.2015 11:09 19,6 C 61 % 1014,0 hPa 0,0 l/m 4,3 km/h (1 Bft) O-SO 116 5 min 0,000 mm 2,0 UV-I 429 W/m 11,9 C 19,6 C 7,9 km/h (2 Bft) 0,00 %
13.09.2015 11:14 19,7 C 60 % 1014,2 hPa 0,0 l/m 4,7 km/h (1 Bft) O-SO 102 5 min 0,000 mm 2,0 UV-I 445 W/m 11,7 C 19,7 C 7,9 km/h (2 Bft) 0,00 %
13.09.2015 11:19 19,8 C 60 % 1013,8 hPa 0,0 l/m 5,8 km/h (2 Bft) W 277 5 min 0,000 mm 2,0 UV-I 469 W/m 11,8 C 19,8 C 7,9 km/h (2 Bft) 0,00 %
13.09.2015 11:24 19,8 C 60 % 1013,8 hPa 0,0 l/m 2,9 km/h (1 Bft) NO 51 5 min 0,000 mm 2,0 UV-I 462 W/m 11,8 C 19,8 C 4,0 km/h (1 Bft) 0,00 %
13.09.2015 11:29 19,8 C 59 % 1013,6 hPa 0,0 l/m 5,4 km/h (1 Bft) SO 124 5 min 0,000 mm 2,0 UV-I 498 W/m 11,6 C 19,8 C 7,9 km/h (2 Bft) 0,00 %
13.09.2015 11:34 20,2 C 59 % 1013,7 hPa 0,0 l/m 1,8 km/h (1 Bft) O-SO 117 5 min 0,000 mm 2,0 UV-I 512 W/m 11,9 C 20,2 C 4,0 km/h (1 Bft) 0,00 %
13.09.2015 11:39 20,5 C 58 % 1013,8 hPa 0,0 l/m 4,3 km/h (1 Bft) O-SO 119 5 min 0,000 mm 2,0 UV-I 500 W/m 11,9 C 20,5 C 7,9 km/h (2 Bft) 0,00 %
13.09.2015 11:44 20,7 C 57 % 1013,7 hPa 0,0 l/m 1,8 km/h (1 Bft) O-SO 107 5 min 0,000 mm 2,0 UV-I 484 W/m 11,9 C 20,7 C 4,0 km/h (1 Bft) 0,00 %
13.09.2015 11:49 20,8 C 55 % 1013,8 hPa 0,0 l/m 2,2 km/h (1 Bft) S-SO 162 5 min 0,000 mm 2,0 UV-I 497 W/m 11,4 C 20,8 C 4,0 km/h (1 Bft) 0,00 %
13.09.2015 11:54 20,8 C 57 % 1013,5 hPa 0,0 l/m 5,4 km/h (1 Bft) O 80 5 min 0,000 mm 2,0 UV-I 563 W/m 12,0 C 20,8 C 7,9 km/h (2 Bft) 0,00 %
13.09.2015 11:59 20,7 C 57 % 1013,5 hPa 0,0 l/m 4,3 km/h (1 Bft) O 97 5 min 0,000 mm 2,0 UV-I 569 W/m 11,9 C 20,7 C 7,9 km/h (2 Bft) 0,00 %
13.09.2015 12:04 20,8 C 53 % 1013,5 hPa 0,0 l/m 7,9 km/h (2 Bft) O-SO 104 5 min 0,000 mm 2,0 UV-I 605 W/m 10,9 C 20,2 C 11,9 km/h (2 Bft) 0,00 %
13.09.2015 12:09 21,0 C 54 % 1013,4 hPa 0,0 l/m 2,9 km/h (1 Bft) SO 134 5 min 0,000 mm 2,0 UV-I 513 W/m 11,3 C 21,0 C 4,0 km/h (1 Bft) 0,00 %
13.09.2015 12:14 21,0 C 54 % 1013,2 hPa 0,0 l/m 5,4 km/h (1 Bft) NO 55 5 min 0,000 mm 2,0 UV-I 576 W/m 11,3 C 21,0 C 7,9 km/h (2 Bft) 0,00 %
13.09.2015 12:19 21,0 C 54 % 1013,1 hPa 0,0 l/m 2,9 km/h (1 Bft) O 96 5 min 0,000 mm 3,0 UV-I 646 W/m 11,3 C 21,0 C 4,0 km/h (1 Bft) 0,00 %
13.09.2015 12:24 21,0 C 55 % 1013,1 hPa 0,0 l/m 3,2 km/h (1 Bft) O-SO 103 5 min 0,000 mm 3,0 UV-I 623 W/m 11,6 C 21,0 C 4,0 km/h (1 Bft) 0,00 %
13.09.2015 12:29 21,0 C 54 % 1012,9 hPa 0,0 l/m 7,2 km/h (2 Bft) SO 142 5 min 0,000 mm 3,0 UV-I 671 W/m 11,3 C 20,7 C 7,9 km/h (2 Bft) 0,00 %
13.09.2015 12:34 21,0 C 52 % 1012,9 hPa 0,0 l/m 6,8 km/h (2 Bft) N-NO 29 5 min 0,000 mm 3,0 UV-I 679 W/m 10,8 C 20,9 C 11,9 km/h (2 Bft) 0,00 %
13.09.2015 12:39 21,1 C 52 % 1012,8 hPa 0,0 l/m 1,4 km/h (1 Bft) SO 142 5 min 0,000 mm 3,0 UV-I 662 W/m 10,9 C 21,1 C 4,0 km/h (1 Bft) 0,00 %
13.09.2015 12:44 21,3 C 50 % 1012,8 hPa 0,0 l/m 0,4 km/h (0 Bft) O-NO 58 5 min 0,000 mm 3,0 UV-I 678 W/m 10,4 C 21,3 C 4,0 km/h (1 Bft) 0,00 %
13.09.2015 12:49 21,4 C 50 % 1012,8 hPa 0,0 l/m 2,9 km/h (1 Bft) O-NO 64 5 min 0,000 mm 3,0 UV-I 675 W/m 10,5 C 21,4 C 4,0 km/h (1 Bft) 0,00 %
13.09.2015 12:54 21,4 C 50 % 1012,4 hPa 0,0 l/m 6,5 km/h (2 Bft) S-SO 148 5 min 0,000 mm 2,0 UV-I 637 W/m 10,5 C 21,4 C 11,9 km/h (2 Bft) 0,00 %
13.09.2015 12:59 21,4 C 50 % 1012,6 hPa 0,0 l/m 6,8 km/h (2 Bft) SO 144 5 min 0,000 mm 3,0 UV-I 688 W/m 10,5 C 21,3 C 11,9 km/h (2 Bft) 0,00 %
13.09.2015 13:04 21,4 C 50 % 1012,6 hPa 0,0 l/m 2,2 km/h (1 Bft) N 11 5 min 0,000 mm 3,0 UV-I 707 W/m 10,5 C 21,4 C 4,0 km/h (1 Bft) 0,00 %
13.09.2015 13:09 21,6 C 49 % 1012,5 hPa 0,0 l/m 12,2 km/h (2 Bft) O-NO 78 5 min 0,000 mm 3,0 UV-I 707 W/m 10,4 C 19,8 C 15,8 km/h (3 Bft) 0,00 %
13.09.2015 13:14 21,8 C 50 % 1012,5 hPa 0,0 l/m 11,9 km/h (2 Bft) O 97 5 min 0,000 mm 3,0 UV-I 742 W/m 10,9 C 20,1 C 15,8 km/h (3 Bft) 0,00 %
13.09.2015 13:19 21,9 C 50 % 1012,3 hPa 0,0 l/m 5,4 km/h (1 Bft) O 93 5 min 0,000 mm 3,0 UV-I 657 W/m 11,0 C 21,9 C 7,9 km/h (2 Bft) 0,00 %
13.09.2015 13:24 22,0 C 48 % 1012,1 hPa 0,0 l/m 0,4 km/h (0 Bft) O-SO 120 5 min 0,000 mm 2,0 UV-I 654 W/m 10,5 C 22,0 C 4,0 km/h (1 Bft) 0,00 %
13.09.2015 13:29 22,3 C 47 % 1012,2 hPa 0,0 l/m 4,0 km/h (1 Bft) N 358 5 min 0,000 mm 2,0 UV-I 660 W/m 10,4 C 22,3 C 7,9 km/h (2 Bft) 0,00 %
13.09.2015 13:34 22,4 C 48 % 1012,2 hPa 0,0 l/m 9,7 km/h (2 Bft) O-SO 110 5 min 0,000 mm 2,0 UV-I 604 W/m 10,8 C 21,4 C 15,8 km/h (3 Bft) 0,00 %
13.09.2015 13:39 22,4 C 47 % 1012,3 hPa 0,0 l/m 2,9 km/h (1 Bft) N-NO 25 5 min 0,000 mm 2,0 UV-I 393 W/m 10,5 C 22,4 C 4,0 km/h (1 Bft) 0,00 %
13.09.2015 13:44 22,3 C 47 % 1012,0 hPa 0,0 l/m 5,4 km/h (1 Bft) NO 52 5 min 0,000 mm 2,0 UV-I 555 W/m 10,4 C 22,3 C 7,9 km/h (2 Bft) 0,00 %
13.09.2015 13:49 22,3 C 48 % 1012,0 hPa 0,0 l/m 0,7 km/h (0 Bft) O-NO 60 5 min 0,000 mm 3,0 UV-I 774 W/m 10,8 C 22,3 C 4,0 km/h (1 Bft) 0,00 %
13.09.2015 13:54 22,4 C 45 % 1012,0 hPa 0,0 l/m 3,2 km/h (1 Bft) N-NW 342 5 min 0,000 mm 2,0 UV-I 756 W/m 9,9 C 22,4 C 7,9 km/h (2 Bft) 0,00 %
13.09.2015 13:59 22,8 C 44 % 1011,9 hPa 0,0 l/m 6,5 km/h (2 Bft) NO 46 5 min 0,000 mm 2,0 UV-I 680 W/m 9,9 C 22,8 C 7,9 km/h (2 Bft) 0,00 %
13.09.2015 14:04 23,1 C 45 % 1011,9 hPa 0,0 l/m 0,0 km/h (0 Bft) NO 42 0 min 0,000 mm 2,0 UV-I 348 W/m 10,5 C 23,1 C 0,0 km/h (0 Bft) 0,00 %
13.09.2015 14:09 23,1 C 48 % 1011,8 hPa 0,0 l/m 0,4 km/h (0 Bft) O-NO 76 5 min 0,000 mm 2,0 UV-I 612 W/m 11,5 C 23,1 C 4,0 km/h (1 Bft) 0,00 %
13.09.2015 14:14 22,9 C 49 % 1011,6 hPa 0,0 l/m 1,8 km/h (1 Bft) SO 138 5 min 0,000 mm 2,0 UV-I 527 W/m 11,6 C 22,9 C 4,0 km/h (1 Bft) 0,00 %
13.09.2015 14:19 22,8 C 46 % 1011,8 hPa 0,0 l/m 7,2 km/h (2 Bft) S 182 5 min 0,000 mm 2,0 UV-I 604 W/m 10,6 C 22,5 C 11,9 km/h (2 Bft) 0,00 %
13.09.2015 14:24 22,8 C 48 % 1011,6 hPa 0,0 l/m 6,5 km/h (2 Bft) SO 129 5 min 0,000 mm 2,0 UV-I 667 W/m 11,2 C 22,8 C 7,9 km/h (2 Bft) 0,00 %
13.09.2015 14:29 22,7 C 48 % 1011,6 hPa 0,0 l/m 11,5 km/h (2 Bft) SO 131 5 min 0,000 mm 2,0 UV-I 733 W/m 11,1 C 21,3 C 15,8 km/h (3 Bft) 0,00 %
13.09.2015 14:34 22,8 C 47 % 1011,6 hPa 0,0 l/m 0,7 km/h (0 Bft) O-NO 59 5 min 0,000 mm 1,0 UV-I 684 W/m 10,9 C 22,8 C 4,0 km/h (1 Bft) 0,00 %
13.09.2015 14:39 23,1 C 46 % 1011,3 hPa 0,0 l/m 2,9 km/h (1 Bft) NO 40 5 min 0,000 mm 1,0 UV-I 719 W/m 10,8 C 23,1 C 4,0 km/h (1 Bft) 0,00 %
13.09.2015 14:44 23,4 C 46 % 1011,5 hPa 0,0 l/m 11,5 km/h (2 Bft) O-SO 105 5 min 0,000 mm 1,0 UV-I 660 W/m 11,1 C 22,1 C 15,8 km/h (3 Bft) 0,00 %
13.09.2015 14:49 23,4 C 45 % 1011,4 hPa 0,0 l/m 6,5 km/h (2 Bft) O 79 5 min 0,000 mm 1,0 UV-I 660 W/m 10,8 C 23,4 C 11,9 km/h (2 Bft) 0,00 %
13.09.2015 14:54 23,0 C 48 % 1011,3 hPa 0,0 l/m 9,4 km/h (2 Bft) NO 51 5 min 0,000 mm 1,0 UV-I 650 W/m 11,4 C 22,1 C 11,9 km/h (2 Bft) 0,00 %
13.09.2015 14:59 22,6 C 49 % 1011,4 hPa 0,0 l/m 10,4 km/h (2 Bft) S 174 5 min 0,000 mm 1,0 UV-I 640 W/m 11,3 C 21,4 C 15,8 km/h (3 Bft) 0,00 %
13.09.2015 15:04 22,4 C 49 % 1011,3 hPa 0,0 l/m 3,2 km/h (1 Bft) O-SO 123 5 min 0,000 mm 1,0 UV-I 643 W/m 11,2 C 22,4 C 4,0 km/h (1 Bft) 0,00 %
13.09.2015 15:09 22,3 C 51 % 1011,2 hPa 0,0 l/m 10,8 km/h (2 Bft) SO 124 5 min 0,000 mm 1,0 UV-I 666 W/m 11,7 C 21,0 C 15,8 km/h (3 Bft) 0,00 %
13.09.2015 15:14 22,2 C 51 % 1011,2 hPa 0,0 l/m 9,0 km/h (2 Bft) O 88 5 min 0,000 mm 1,0 UV-I 643 W/m 11,6 C 21,4 C 11,9 km/h (2 Bft) 0,00 %
13.09.2015 15:19 22,2 C 52 % 1011,1 hPa 0,0 l/m 2,9 km/h (1 Bft) O 82 5 min 0,000 mm 1,0 UV-I 588 W/m 11,9 C 22,2 C 7,9 km/h (2 Bft) 0,00 %
13.09.2015 15:24 22,2 C 52 % 1011,1 hPa 0,0 l/m 4,0 km/h (1 Bft) O-NO 76 5 min 0,000 mm 1,0 UV-I 623 W/m 11,9 C 22,2 C 7,9 km/h (2 Bft) 0,00 %
13.09.2015 15:29 22,4 C 52 % 1011,0 hPa 0,0 l/m 2,9 km/h (1 Bft) SO 134 5 min 0,000 mm 1,0 UV-I 634 W/m 12,1 C 22,4 C 7,9 km/h (2 Bft) 0,00 %
13.09.2015 15:34 22,4 C 53 % 1011,2 hPa 0,0 l/m 0,7 km/h (0 Bft) O-SO 108 5 min 0,000 mm 1,0 UV-I 534 W/m 12,3 C 22,4 C 4,0 km/h (1 Bft) 0,00 %
13.09.2015 15:39 22,5 C 53 % 1011,1 hPa 0,0 l/m 4,3 km/h (1 Bft) SO 141 5 min 0,000 mm 1,0 UV-I 567 W/m 12,4 C 22,5 C 7,9 km/h (2 Bft) 0,00 %
13.09.2015 15:44 22,5 C 53 % 1010,9 hPa 0,0 l/m 2,2 km/h (1 Bft) SO 137 5 min 0,000 mm 1,0 UV-I 543 W/m 12,4 C 22,5 C 4,0 km/h (1 Bft) 0,00 %
13.09.2015 15:49 22,5 C 52 % 1010,9 hPa 0,0 l/m 2,9 km/h (1 Bft) NO 53 0 min 0,000 mm 1,0 UV-I 204 W/m 12,1 C 22,5 C 4,0 km/h (1 Bft) 0,00 %
13.09.2015 15:54 22,6 C 53 % 1010,8 hPa 0,0 l/m 0,0 km/h (0 Bft) NO 54 0 min 0,000 mm 1,0 UV-I 193 W/m 12,5 C 22,6 C 0,0 km/h (0 Bft) 0,00 %
13.09.2015 15:59 22,6 C 54 % 1010,8 hPa 0,0 l/m 2,2 km/h (1 Bft) SO 127 0 min 0,000 mm 1,0 UV-I 189 W/m 12,8 C 22,6 C 4,0 km/h (1 Bft) 0,00 %
13.09.2015 16:04 22,6 C 54 % 1010,7 hPa 0,0 l/m 5,8 km/h (2 Bft) SO 146 0 min 0,000 mm 1,0 UV-I 186 W/m 12,8 C 22,6 C 7,9 km/h (2 Bft) 0,00 %
13.09.2015 16:09 22,5 C 53 % 1010,6 hPa 0,0 l/m 6,5 km/h (2 Bft) O 79 0 min 0,000 mm 1,0 UV-I 182 W/m 12,4 C 22,5 C 7,9 km/h (2 Bft) 0,00 %
13.09.2015 16:14 22,5 C 54 % 1010,7 hPa 0,0 l/m 4,3 km/h (1 Bft) O-SO 106 0 min 0,000 mm 1,0 UV-I 175 W/m 12,7 C 22,5 C 7,9 km/h (2 Bft) 0,00 %
13.09.2015 16:19 22,4 C 53 % 1010,5 hPa 0,0 l/m 0,0 km/h (0 Bft) SO 144 0 min 0,000 mm 1,0 UV-I 163 W/m 12,3 C 22,4 C 0,0 km/h (0 Bft) 0,00 %
13.09.2015 16:24 22,4 C 54 % 1010,5 hPa 0,0 l/m 2,2 km/h (1 Bft) O-SO 119 0 min 0,000 mm 1,0 UV-I 147 W/m 12,6 C 22,4 C 4,0 km/h (1 Bft) 0,00 %
13.09.2015 16:29 22,4 C 55 % 1010,6 hPa 0,0 l/m 0,0 km/h (0 Bft) NO 41 0 min 0,000 mm 1,0 UV-I 134 W/m 12,9 C 22,4 C 0,0 km/h (0 Bft) 0,00 %
13.09.2015 16:34 22,4 C 55 % 1010,3 hPa 0,0 l/m 0,0 km/h (0 Bft) O-NO 59 0 min 0,000 mm 1,0 UV-I 125 W/m 12,9 C 22,4 C 0,0 km/h (0 Bft) 0,00 %
13.09.2015 16:39 22,3 C 56 % 1010,3 hPa 0,0 l/m 0,7 km/h (0 Bft) O 89 0 min 0,000 mm 1,0 UV-I 119 W/m 13,1 C 22,3 C 4,0 km/h (1 Bft) 0,00 %
13.09.2015 16:44 22,2 C 56 % 1010,1 hPa 0,0 l/m 3,2 km/h (1 Bft) S-SO 154 0 min 0,000 mm 1,0 UV-I 115 W/m 13,0 C 22,2 C 4,0 km/h (1 Bft) 0,00 %
13.09.2015 16:49 22,1 C 56 % 1010,2 hPa 0,0 l/m 0,0 km/h (0 Bft) O-NO 60 0 min 0,000 mm 1,0 UV-I 113 W/m 12,9 C 22,1 C 0,0 km/h (0 Bft) 0,00 %
13.09.2015 16:54 22,1 C 56 % 1010,2 hPa 0,0 l/m 1,4 km/h (1 Bft) SO 129 0 min 0,000 mm 1,0 UV-I 112 W/m 12,9 C 22,1 C 4,0 km/h (1 Bft) 0,00 %
13.09.2015 16:59 22,1 C 56 % 1010,1 hPa 0,0 l/m 0,4 km/h (0 Bft) O 97 0 min 0,000 mm 0,0 UV-I 112 W/m 12,9 C 22,1 C 4,0 km/h (1 Bft) 0,00 %
13.09.2015 17:04 22,1 C 57 % 1009,9 hPa 0,0 l/m 0,0 km/h (0 Bft) O-NO 60 0 min 0,000 mm 0,0 UV-I 114 W/m 13,2 C 22,1 C 0,0 km/h (0 Bft) 0,00 %
13.09.2015 17:09 22,1 C 57 % 1009,9 hPa 0,0 l/m 1,4 km/h (1 Bft) O 94 0 min 0,000 mm 1,0 UV-I 121 W/m 13,2 C 22,1 C 4,0 km/h (1 Bft) 0,00 %
13.09.2015 17:14 22,1 C 58 % 1009,8 hPa 0,0 l/m 0,0 km/h (0 Bft) O-NO 71 0 min 0,000 mm 1,0 UV-I 148 W/m 13,4 C 22,1 C 0,0 km/h (0 Bft) 0,00 %
13.09.2015 17:19 22,1 C 58 % 1009,8 hPa 0,0 l/m 0,0 km/h (0 Bft) O-NO 58 5 min 0,000 mm 1,0 UV-I 226 W/m 13,4 C 22,1 C 0,0 km/h (0 Bft) 0,00 %
13.09.2015 17:24 22,2 C 57 % 1010,0 hPa 0,0 l/m 0,0 km/h (0 Bft) NO 52 5 min 0,000 mm 1,0 UV-I 359 W/m 13,3 C 22,2 C 0,0 km/h (0 Bft) 0,00 %
13.09.2015 17:29 22,4 C 57 % 1009,8 hPa 0,0 l/m 0,0 km/h (0 Bft) NO 52 5 min 0,000 mm 1,0 UV-I 318 W/m 13,5 C 22,4 C 0,0 km/h (0 Bft) 0,00 %
13.09.2015 17:34 22,7 C 54 % 1009,7 hPa 0,0 l/m 1,8 km/h (1 Bft) O 85 5 min 0,000 mm 1,0 UV-I 362 W/m 12,9 C 22,7 C 4,0 km/h (1 Bft) 0,00 %
13.09.2015 17:39 23,1 C 52 % 1009,7 hPa 0,0 l/m 0,7 km/h (0 Bft) O-NO 72 5 min 0,000 mm 1,0 UV-I 399 W/m 12,7 C 23,1 C 4,0 km/h (1 Bft) 0,00 %
13.09.2015 17:44 23,4 C 52 % 1009,7 hPa 0,0 l/m 0,0 km/h (0 Bft) O-NO 75 5 min 0,000 mm 1,0 UV-I 282 W/m 13,0 C 23,4 C 0,0 km/h (0 Bft) 0,00 %
13.09.2015 17:49 23,4 C 52 % 1009,6 hPa 0,0 l/m 5,4 km/h (1 Bft) SO 142 5 min 0,000 mm 1,0 UV-I 188 W/m 13,0 C 23,4 C 7,9 km/h (2 Bft) 0,00 %
13.09.2015 17:54 23,3 C 52 % 1009,3 hPa 0,0 l/m 2,2 km/h (1 Bft) SO 124 5 min 0,000 mm 1,0 UV-I 144 W/m 12,9 C 23,3 C 4,0 km/h (1 Bft) 0,00 %
13.09.2015 17:59 23,0 C 54 % 1009,4 hPa 0,0 l/m 4,0 km/h (1 Bft) O-SO 110 0 min 0,000 mm 1,0 UV-I 118 W/m 13,2 C 23,0 C 7,9 km/h (2 Bft) 0,00 %
13.09.2015 18:04 22,5 C 55 % 1009,2 hPa 0,0 l/m 0,0 km/h (0 Bft) NO 56 5 min 0,000 mm 1,0 UV-I 152 W/m 13,0 C 22,5 C 0,0 km/h (0 Bft) 0,00 %
13.09.2015 18:09 22,2 C 56 % 1009,5 hPa 0,0 l/m 0,7 km/h (0 Bft) O 95 5 min 0,000 mm 0,0 UV-I 117 W/m 13,0 C 22,2 C 4,0 km/h (1 Bft) 0,00 %
13.09.2015 18:14 22,0 C 58 % 1009,3 hPa 0,0 l/m 0,0 km/h (0 Bft) O 81 0 min 0,000 mm 0,0 UV-I 98 W/m 13,3 C 22,0 C 0,0 km/h (0 Bft) 0,00 %
13.09.2015 18:19 21,8 C 58 % 1009,3 hPa 0,0 l/m 0,4 km/h (0 Bft) O-SO 111 0 min 0,000 mm 0,0 UV-I 81 W/m 13,2 C 21,8 C 4,0 km/h (1 Bft) 0,00 %
13.09.2015 18:24 21,6 C 58 % 1009,3 hPa 0,0 l/m 0,0 km/h (0 Bft) O 79 0 min 0,000 mm 0,0 UV-I 68 W/m 13,0 C 21,6 C 0,0 km/h (0 Bft) 0,00 %
13.09.2015 18:29 21,4 C 59 % 1009,1 hPa 0,0 l/m 0,0 km/h (0 Bft) NO 47 0 min 0,000 mm 0,0 UV-I 59 W/m 13,0 C 21,4 C 0,0 km/h (0 Bft) 0,00 %
13.09.2015 18:34 21,1 C 61 % 1009,2 hPa 0,0 l/m 0,7 km/h (0 Bft) O-SO 114 0 min 0,000 mm 0,0 UV-I 57 W/m 13,3 C 21,1 C 4,0 km/h (1 Bft) 0,00 %
13.09.2015 18:39 20,8 C 61 % 1008,9 hPa 0,0 l/m 0,0 km/h (0 Bft) NO 50 5 min 0,000 mm 0,0 UV-I 70 W/m 13,0 C 20,8 C 0,0 km/h (0 Bft) 0,00 %
13.09.2015 18:44 20,5 C 62 % 1009,0 hPa 0,0 l/m 0,0 km/h (0 Bft) O 96 0 min 0,000 mm 0,0 UV-I 50 W/m 13,0 C 20,5 C 0,0 km/h (0 Bft) 0,00 %
13.09.2015 18:49 20,4 C 63 % 1009,1 hPa 0,0 l/m 0,0 km/h (0 Bft) O 87 0 min 0,000 mm 0,0 UV-I 31 W/m 13,1 C 20,4 C 0,0 km/h (0 Bft) 0,00 %
13.09.2015 18:54 20,2 C 63 % 1008,9 hPa 0,0 l/m 0,0 km/h (0 Bft) O 101 0 min 0,000 mm 0,0 UV-I 25 W/m 12,9 C 20,2 C 0,0 km/h (0 Bft) 0,00 %
13.09.2015 18:59 20,0 C 65 % 1009,0 hPa 0,0 l/m 0,7 km/h (0 Bft) O 98 0 min 0,000 mm 0,0 UV-I 18 W/m 13,2 C 20,0 C 4,0 km/h (1 Bft) 0,00 %
13.09.2015 19:04 19,8 C 65 % 1009,1 hPa 0,0 l/m 0,0 km/h (0 Bft) O-NO 64 0 min 0,000 mm 0,0 UV-I 8 W/m 13,0 C 19,8 C 0,0 km/h (0 Bft) 0,00 %
13.09.2015 19:09 19,7 C 66 % 1008,8 hPa 0,0 l/m 0,4 km/h (0 Bft) O-NO 75 0 min 0,000 mm 0,0 UV-I 4 W/m 13,2 C 19,7 C 4,0 km/h (1 Bft) 0,00 %
13.09.2015 19:14 19,4 C 67 % 1008,7 hPa 0,0 l/m 0,0 km/h (0 Bft) O-NO 77 0 min 0,000 mm 0,0 UV-I 0 W/m 13,1 C 19,4 C 0,0 km/h (0 Bft) 0,00 %
13.09.2015 19:19 19,2 C 68 % 1008,6 hPa 0,0 l/m 0,0 km/h (0 Bft) NO 45 0 min 0,000 mm 0,0 UV-I 0 W/m 13,1 C 19,2 C 0,0 km/h (0 Bft) 0,00 %
13.09.2015 19:24 19,2 C 67 % 1008,7 hPa 0,0 l/m 1,8 km/h (1 Bft) SO 136 0 min 0,000 mm 0,0 UV-I 0 W/m 12,9 C 19,2 C 4,0 km/h (1 Bft) 0,00 %
13.09.2015 19:29 19,3 C 66 % 1008,8 hPa 0,0 l/m 1,8 km/h (1 Bft) O 94 0 min 0,000 mm 0,0 UV-I 0 W/m 12,8 C 19,3 C 4,0 km/h (1 Bft) 0,00 %
13.09.2015 19:34 19,5 C 66 % 1008,7 hPa 0,0 l/m 4,0 km/h (1 Bft) O-SO 119 0 min 0,000 mm 0,0 UV-I 0 W/m 13,0 C 19,5 C 4,0 km/h (1 Bft) 0,00 %
13.09.2015 19:39 19,6 C 65 % 1008,9 hPa 0,0 l/m 3,2 km/h (1 Bft) O 93 0 min 0,000 mm 0,0 UV-I 0 W/m 12,8 C 19,6 C 7,9 km/h (2 Bft) 0,00 %
13.09.2015 19:44 19,6 C 65 % 1008,8 hPa 0,0 l/m 2,9 km/h (1 Bft) O 93 0 min 0,000 mm 0,0 UV-I 0 W/m 12,8 C 19,6 C 4,0 km/h (1 Bft) 0,00 %
13.09.2015 19:49 19,6 C 66 % 1008,6 hPa 0,0 l/m 0,0 km/h (0 Bft) NO 55 0 min 0,000 mm 0,0 UV-I 0 W/m 13,1 C 19,6 C 0,0 km/h (0 Bft) 0,00 %
13.09.2015 19:54 19,5 C 67 % 1008,7 hPa 0,0 l/m 1,4 km/h (1 Bft) O 86 0 min 0,000 mm 0,0 UV-I 0 W/m 13,2 C 19,5 C 4,0 km/h (1 Bft) 0,00 %
13.09.2015 19:59 19,3 C 68 % 1009,0 hPa 0,0 l/m 3,2 km/h (1 Bft) O 80 0 min 0,000 mm 0,0 UV-I 0 W/m 13,2 C 19,3 C 7,9 km/h (2 Bft) 0,00 %
13.09.2015 20:04 19,1 C 66 % 1009,0 hPa 0,0 l/m 0,4 km/h (0 Bft) NO 39 0 min 0,000 mm 0,0 UV-I 0 W/m 12,6 C 19,1 C 4,0 km/h (1 Bft) 0,00 %
13.09.2015 20:09 19,2 C 66 % 1008,9 hPa 0,0 l/m 0,4 km/h (0 Bft) O-SO 113 0 min 0,000 mm 0,0 UV-I 0 W/m 12,7 C 19,2 C 4,0 km/h (1 Bft) 0,00 %
13.09.2015 20:14 19,2 C 67 % 1008,9 hPa 0,0 l/m 4,0 km/h (1 Bft) O-SO 109 0 min 0,000 mm 0,0 UV-I 0 W/m 12,9 C 19,2 C 4,0 km/h (1 Bft) 0,00 %
13.09.2015 20:19 19,1 C 67 % 1008,6 hPa 0,0 l/m 0,4 km/h (0 Bft) O 90 0 min 0,000 mm 0,0 UV-I 0 W/m 12,8 C 19,1 C 4,0 km/h (1 Bft) 0,00 %
13.09.2015 20:24 19,0 C 67 % 1008,8 hPa 0,0 l/m 1,4 km/h (1 Bft) O 91 0 min 0,000 mm 0,0 UV-I 0 W/m 12,7 C 19,0 C 4,0 km/h (1 Bft) 0,00 %
13.09.2015 20:29 19,1 C 67 % 1008,9 hPa 0,0 l/m 0,4 km/h (0 Bft) N-NO 32 0 min 0,000 mm 0,0 UV-I 0 W/m 12,8 C 19,1 C 4,0 km/h (1 Bft) 0,00 %
13.09.2015 20:34 19,0 C 68 % 1009,0 hPa 0,0 l/m 0,7 km/h (0 Bft) SO 145 0 min 0,000 mm 0,0 UV-I 0 W/m 13,0 C 19,0 C 4,0 km/h (1 Bft) 0,00 %
13.09.2015 20:39 18,9 C 69 % 1009,0 hPa 0,0 l/m 1,8 km/h (1 Bft) O-NO 59 0 min 0,000 mm 0,0 UV-I 0 W/m 13,1 C 18,9 C 4,0 km/h (1 Bft) 0,00 %
13.09.2015 20:44 18,8 C 70 % 1008,8 hPa 0,0 l/m 4,7 km/h (1 Bft) O-SO 122 0 min 0,000 mm 0,0 UV-I 0 W/m 13,2 C 18,8 C 7,9 km/h (2 Bft) 0,00 %
13.09.2015 20:49 18,7 C 71 % 1008,8 hPa 0,0 l/m 2,9 km/h (1 Bft) O 88 0 min 0,000 mm 0,0 UV-I 0 W/m 13,3 C 18,7 C 4,0 km/h (1 Bft) 0,00 %
13.09.2015 20:54 18,6 C 71 % 1008,9 hPa 0,0 l/m 1,4 km/h (1 Bft) O-SO 102 0 min 0,000 mm 0,0 UV-I 0 W/m 13,2 C 18,6 C 4,0 km/h (1 Bft) 0,00 %
13.09.2015 20:59 18,5 C 71 % 1009,0 hPa 0,0 l/m 0,7 km/h (0 Bft) O-SO 114 0 min 0,000 mm 0,0 UV-I 0 W/m 13,1 C 18,5 C 4,0 km/h (1 Bft) 0,00 %
13.09.2015 21:04 18,2 C 73 % 1009,1 hPa 0,0 l/m 0,0 km/h (0 Bft) O-NO 73 0 min 0,000 mm 0,0 UV-I 0 W/m 13,3 C 18,2 C 0,0 km/h (0 Bft) 0,00 %
13.09.2015 21:09 17,7 C 74 % 1009,0 hPa 0,0 l/m 0,0 km/h (0 Bft) O 79 0 min 0,000 mm 0,0 UV-I 0 W/m 13,0 C 17,7 C 0,0 km/h (0 Bft) 0,00 %
13.09.2015 21:14 17,2 C 76 % 1008,5 hPa 0,0 l/m 0,0 km/h (0 Bft) NO 48 0 min 0,000 mm 0,0 UV-I 0 W/m 12,9 C 17,2 C 0,0 km/h (0 Bft) 0,00 %
13.09.2015 21:19 16,9 C 77 % 1008,9 hPa 0,0 l/m 0,0 km/h (0 Bft) SO 127 0 min 0,000 mm 0,0 UV-I 0 W/m 12,8 C 16,9 C 0,0 km/h (0 Bft) 0,00 %
13.09.2015 21:24 16,6 C 78 % 1008,8 hPa 0,0 l/m 0,0 km/h (0 Bft) O 92 0 min 0,000 mm 0,0 UV-I 0 W/m 12,7 C 16,6 C 0,0 km/h (0 Bft) 0,00 %
13.09.2015 21:29 16,4 C 78 % 1008,7 hPa 0,0 l/m 0,0 km/h (0 Bft) NO 52 0 min 0,000 mm 0,0 UV-I 0 W/m 12,6 C 16,4 C 0,0 km/h (0 Bft) 0,00 %
13.09.2015 21:34 16,2 C 79 % 1008,8 hPa 0,0 l/m 0,0 km/h (0 Bft) O 99 0 min 0,000 mm 0,0 UV-I 0 W/m 12,6 C 16,2 C 0,0 km/h (0 Bft) 0,00 %
13.09.2015 21:39 16,0 C 80 % 1008,8 hPa 0,0 l/m 0,0 km/h (0 Bft) O 81 0 min 0,000 mm 0,0 UV-I 0 W/m 12,5 C 16,0 C 0,0 km/h (0 Bft) 0,00 %
13.09.2015 21:44 15,9 C 80 % 1008,8 hPa 0,0 l/m 0,0 km/h (0 Bft) O-SO 104 0 min 0,000 mm 0,0 UV-I 0 W/m 12,5 C 15,9 C 0,0 km/h (0 Bft) 0,00 %
13.09.2015 21:49 15,8 C 80 % 1008,7 hPa 0,0 l/m 1,4 km/h (1 Bft) NO 53 0 min 0,000 mm 0,0 UV-I 0 W/m 12,4 C 15,8 C 4,0 km/h (1 Bft) 0,00 %
13.09.2015 21:54 15,8 C 79 % 1008,7 hPa 0,0 l/m 1,8 km/h (1 Bft) O 91 0 min 0,000 mm 0,0 UV-I 0 W/m 12,2 C 15,8 C 4,0 km/h (1 Bft) 0,00 %
13.09.2015 21:59 15,9 C 78 % 1008,7 hPa 0,0 l/m 0,4 km/h (0 Bft) O 80 0 min 0,000 mm 0,0 UV-I 0 W/m 12,1 C 15,9 C 4,0 km/h (1 Bft) 0,00 %
13.09.2015 22:04 16,0 C 78 % 1008,6 hPa 0,0 l/m 0,0 km/h (0 Bft) O-NO 72 0 min 0,000 mm 0,0 UV-I 0 W/m 12,2 C 16,0 C 0,0 km/h (0 Bft) 0,00 %
13.09.2015 22:09 16,1 C 77 % 1008,6 hPa 0,0 l/m 0,4 km/h (0 Bft) O 82 0 min 0,000 mm 0,0 UV-I 0 W/m 12,1 C 16,1 C 4,0 km/h (1 Bft) 0,00 %
13.09.2015 22:14 16,1 C 77 % 1008,5 hPa 0,0 l/m 0,0 km/h (0 Bft) SO 138 0 min 0,000 mm 0,0 UV-I 0 W/m 12,1 C 16,1 C 0,0 km/h (0 Bft) 0,00 %
13.09.2015 22:19 16,1 C 76 % 1008,7 hPa 0,0 l/m 2,2 km/h (1 Bft) O-SO 123 0 min 0,000 mm 0,0 UV-I 0 W/m 11,9 C 16,1 C 4,0 km/h (1 Bft) 0,00 %
13.09.2015 22:24 16,1 C 76 % 1008,7 hPa 0,0 l/m 0,0 km/h (0 Bft) NO 53 0 min 0,000 mm 0,0 UV-I 0 W/m 11,9 C 16,1 C 0,0 km/h (0 Bft) 0,00 %
13.09.2015 22:30 16,0 C 78 % 1008,6 hPa 0,0 l/m 2,2 km/h (1 Bft) O 98 0 min 0,000 mm 0,0 UV-I 0 W/m 12,2 C 16,0 C 4,0 km/h (1 Bft) 0,00 %
13.09.2015 22:35 15,8 C 78 % 1008,7 hPa 0,0 l/m 0,0 km/h (0 Bft) NO 53 0 min 0,000 mm 0,0 UV-I 0 W/m 12,0 C 15,8 C 0,0 km/h (0 Bft) 0,00 %
13.09.2015 22:40 15,7 C 79 % 1008,7 hPa 0,0 l/m 0,0 km/h (0 Bft) O-NO 62 0 min 0,000 mm 0,0 UV-I 0 W/m 12,1 C 15,7 C 0,0 km/h (0 Bft) 0,00 %
13.09.2015 22:45 15,5 C 79 % 1008,7 hPa 0,0 l/m 0,0 km/h (0 Bft) O-NO 58 0 min 0,000 mm 0,0 UV-I 0 W/m 11,9 C 15,5 C 0,0 km/h (0 Bft) 0,00 %
13.09.2015 22:50 15,3 C 79 % 1008,7 hPa 0,0 l/m 1,8 km/h (1 Bft) O-SO 119 0 min 0,000 mm 0,0 UV-I 0 W/m 11,7 C 15,3 C 4,0 km/h (1 Bft) 0,00 %
13.09.2015 22:55 15,2 C 79 % 1008,6 hPa 0,0 l/m 0,4 km/h (0 Bft) N-NO 28 0 min 0,000 mm 0,0 UV-I 0 W/m 11,6 C 15,2 C 4,0 km/h (1 Bft) 0,00 %
13.09.2015 23:00 15,2 C 79 % 1008,4 hPa 0,0 l/m 0,0 km/h (0 Bft) NO 55 0 min 0,000 mm 0,0 UV-I 0 W/m 11,6 C 15,2 C 0,0 km/h (0 Bft) 0,00 %
13.09.2015 23:05 15,2 C 78 % 1008,5 hPa 0,0 l/m 0,0 km/h (0 Bft) NO 55 0 min 0,000 mm 0,0 UV-I 0 W/m 11,4 C 15,2 C 0,0 km/h (0 Bft) 0,00 %
13.09.2015 23:10 15,4 C 76 % 1008,6 hPa 0,0 l/m 0,0 km/h (0 Bft) O-NO 63 0 min 0,000 mm 0,0 UV-I 0 W/m 11,2 C 15,4 C 0,0 km/h (0 Bft) 0,00 %
13.09.2015 23:15 15,5 C 76 % 1008,5 hPa 0,0 l/m 0,0 km/h (0 Bft) NO 41 0 min 0,000 mm 0,0 UV-I 0 W/m 11,3 C 15,5 C 0,0 km/h (0 Bft) 0,00 %
13.09.2015 23:20 15,5 C 77 % 1008,4 hPa 0,0 l/m 0,0 km/h (0 Bft) NO 53 0 min 0,000 mm 0,0 UV-I 0 W/m 11,5 C 15,5 C 0,0 km/h (0 Bft) 0,00 %
13.09.2015 23:25 15,2 C 80 % 1008,4 hPa 0,0 l/m 0,0 km/h (0 Bft) O-NO 71 0 min 0,000 mm 0,0 UV-I 0 W/m 11,8 C 15,2 C 0,0 km/h (0 Bft) 0,00 %
13.09.2015 23:30 14,8 C 81 % 1008,4 hPa 0,0 l/m 0,0 km/h (0 Bft) NO 55 0 min 0,000 mm 0,0 UV-I 0 W/m 11,6 C 14,8 C 0,0 km/h (0 Bft) 0,00 %
13.09.2015 23:35 14,6 C 81 % 1008,4 hPa 0,0 l/m 0,0 km/h (0 Bft) O-NO 63 0 min 0,000 mm 0,0 UV-I 0 W/m 11,4 C 14,6 C 0,0 km/h (0 Bft) 0,00 %
13.09.2015 23:40 14,5 C 81 % 1008,3 hPa 0,0 l/m 0,0 km/h (0 Bft) NO 56 0 min 0,000 mm 0,0 UV-I 0 W/m 11,3 C 14,5 C 0,0 km/h (0 Bft) 0,00 %
13.09.2015 23:45 14,3 C 81 % 1008,1 hPa 0,0 l/m 0,0 km/h (0 Bft) O-NO 73 0 min 0,000 mm 0,0 UV-I 0 W/m 11,1 C 14,3 C 0,0 km/h (0 Bft) 0,00 %
13.09.2015 23:50 14,2 C 82 % 1008,2 hPa 0,0 l/m 0,0 km/h (0 Bft) NO 55 0 min 0,000 mm 0,0 UV-I 0 W/m 11,2 C 14,2 C 0,0 km/h (0 Bft) 0,00 %
13.09.2015 23:55 14,1 C 82 % 1008,2 hPa 0,0 l/m 0,0 km/h (0 Bft) NO 52 0 min 0,000 mm 0,0 UV-I 0 W/m 11,1 C 14,1 C 0,0 km/h (0 Bft) 0,00 %
_ Min-Zeit 06:54 13:59 23:45 - 00:03 - - - - - - 06:54 06:54 00:03 00:03
Minimum _ 7,9 C 44 % 1008,1 hPa - 0,0 km/h (0 Bft) - - - - - - 7,8 C 7,9 C 0,0 km/h (0 Bft) 0,00 %
_ Max-Zeit 14:44 03:58 00:08 00:03 13:09 - - 06:49 00:03 12:19 13:49 17:29 17:44 13:09 00:03
Maximum _ 23,4 C 99 % 1016,2 hPa 0,0 l/m 12,2 km/h
O-NO (2 Bft)
- - 5 min 0,000 mm 3,0 UV-I 774 W/m 13,5 C 23,4 C 15,8 km/h
O-NO (3 Bft)
0,00 %
Durchschnitt _ 16,3 C 74 % 1012,8 hPa #0,0 l/m 1,5 km/h (1 Bft) O-SO - #6:30 h #0,000 mm 1,6 UV-I 324 W/m 11,2 C 16,2 C 2,8 km/h (1 Bft) 0,00 %